CAPE
nan nan nan nan nan nan nan nan nan nan nan 0 1 1 1 4 nan nan nan nan nan nan nan nan nan nan nan 1 1 1 1 0 0 0 0 1 2 2 3 2 2 1 1 0 0 0 0 1 1 3 3 3 1 1 0 0 0 0 0 0 0 1 1 2 2 2 4 4 5 5 6 7 7 7 4 4 4 4 8 18 18 24 33 38 38 41
nan nan nan nan nan nan 0 nan nan nan nan nan nan nan nan 0 1 1 nan nan nan nan nan nan nan nan nan nan 1 1 0 1 1 1 2 2 2 2 2 2 2 1 1 0 0 1 2 3 3 4 4 2 0 0 nan nan nan nan nan 0 0 0 1 2 2 3 6 6 7 7 7 7 7 7 8 9 11 11 14 19 19 21 30 37 37 46
nan nan nan nan nan nan nan nan nan nan nan nan nan nan nan nan nan nan nan nan nan nan nan nan nan nan nan nan nan nan nan 0 1 1 2 3 3 3 3 2 2 2 1 2 2 2 4 4 4 4 2 0 nan nan nan nan nan nan 0 0 0 1 1 2 2 4 6 7 9 9 9 9 10 10 10 13 18 18 19 21 21 21 28 34 34 44
nan nan nan nan nan nan nan nan nan nan nan nan nan nan nan nan nan nan nan nan nan nan nan nan nan nan nan nan nan nan nan nan nan nan 1 1 2 2 3 3 3 2 2 3 3 4 4 4 4 3 0 nan 0 0 0 0 0 0 0 0 0 0 0 1 1 1 2 3 5 5 7 8 9 9 11 16 19 19 22 21 21 19 21 30 30 41
nan nan nan nan nan nan nan nan nan nan nan nan nan nan nan nan nan nan nan nan nan nan nan nan nan nan nan nan nan nan nan nan nan nan nan nan nan nan 0 1 1 1 2 3 3 4 4 3 3 1 0 0 0 0 0 nan nan nan nan nan nan nan nan nan nan nan nan nan 1 1 3 6 7 7 10 14 17 17 20 20 20 22 22 24 24 31
nan nan nan nan nan nan nan nan nan nan nan nan nan nan nan nan nan nan nan nan nan nan nan nan nan nan nan nan nan nan nan nan nan nan nan nan nan nan nan nan nan nan 0 2 2 3 3 1 1 0 nan nan nan nan nan nan nan nan nan nan nan nan nan nan nan nan nan nan nan nan 0 1 3 3 6 9 13 13 16 18 18 20 22 22 22 27
nan nan nan nan nan nan nan nan nan nan nan nan nan nan nan nan nan nan nan nan nan nan nan nan nan nan nan nan nan nan nan nan nan nan nan nan nan nan nan nan nan nan 0 0 0 0 0 nan nan nan nan nan nan nan nan nan nan nan nan nan nan nan nan nan nan nan nan nan nan nan nan nan 0 0 1 3 7 7 12 15 15 17 20 23 23 25
nan nan nan nan nan nan nan nan nan nan nan nan nan nan nan nan nan nan nan nan nan nan nan nan nan nan nan nan nan nan nan nan nan nan nan nan nan nan nan nan nan nan nan nan nan nan nan nan nan nan nan nan nan nan nan nan nan nan nan nan nan nan nan nan nan nan nan nan nan nan nan nan nan nan nan nan 0 0 3 7 7 11 16 22 22 26
nan nan nan nan nan nan nan nan nan nan nan nan nan nan nan nan nan nan nan nan nan nan nan nan nan nan nan nan nan nan nan nan nan nan nan nan nan nan nan nan nan nan nan nan nan nan nan nan nan nan nan nan nan nan nan nan nan nan nan nan nan nan nan nan nan nan nan nan nan nan nan nan nan nan nan nan nan nan 0 3 3 8 12 19 19 27
nan nan nan nan nan nan nan nan nan nan nan nan nan nan nan nan nan nan nan nan nan nan nan nan nan nan nan nan nan nan nan nan nan nan nan nan nan nan nan nan nan nan nan nan nan nan nan nan nan nan nan nan nan nan nan nan nan nan nan nan nan nan nan nan nan nan nan nan nan nan nan nan nan nan nan nan nan nan nan 1 1 4 8 16 16 27
nan nan nan nan nan nan nan nan nan nan nan nan nan nan nan nan nan nan nan nan nan nan nan nan nan nan nan nan nan nan nan nan nan nan nan nan nan nan nan nan nan nan nan nan nan nan nan nan nan nan nan nan nan nan nan nan nan nan nan nan nan nan nan nan nan nan nan nan nan nan nan nan nan nan nan nan nan nan nan nan nan 2 6 13 13 22
nan nan nan nan nan nan nan nan nan nan nan nan nan nan nan nan nan nan nan nan nan nan nan nan nan nan nan nan nan nan nan nan nan nan nan nan nan nan nan nan nan nan nan nan nan nan nan nan nan nan nan nan nan nan nan nan nan nan nan nan nan nan nan nan nan nan nan nan nan nan nan nan nan nan nan nan nan nan nan nan nan 1 3 9 9 16
nan nan nan nan nan nan nan nan nan nan nan nan nan nan nan nan nan nan nan nan nan nan nan nan nan nan nan nan nan nan nan nan nan nan nan nan nan nan nan nan nan nan nan nan nan nan nan nan nan nan nan nan nan nan nan nan nan nan nan nan nan nan nan 0 0 2 2 2 1 1 0 0 nan nan nan nan nan nan nan nan nan 1 2 6 6 10
nan nan nan nan nan nan nan nan nan nan nan nan nan nan nan nan nan nan nan nan nan nan nan nan nan nan nan nan nan nan nan nan nan nan nan nan nan nan nan nan nan nan nan nan nan nan nan nan nan nan nan nan nan nan nan nan nan nan nan nan nan nan nan 1 1 3 3 3 3 3 2 1 1 1 1 1 1 1 1 1 1 1 2 5 5 8
nan nan nan nan nan nan nan nan nan nan nan nan nan nan nan nan nan nan nan nan nan nan nan nan nan nan nan nan nan nan nan nan nan nan nan nan nan nan nan nan nan nan nan nan nan nan nan nan nan nan nan nan nan nan nan nan nan nan nan nan nan nan 0 1 1 2 3 3 4 4 4 4 3 3 3 3 4 4 3 3 3 3 4 6 6 7
nan nan nan nan nan nan nan nan nan nan nan nan nan nan nan nan nan nan nan nan nan nan nan nan nan nan nan nan nan nan nan nan nan nan nan nan nan nan nan nan nan nan nan nan nan nan nan nan nan nan nan nan nan nan nan nan nan 0 nan nan nan 0 1 2 2 3 3 4 5 5 4 4 5 5 5 6 6 6 8 9 9 11 13 13 13 13
nan nan nan nan nan nan nan nan nan nan nan nan nan nan nan nan nan nan nan nan nan nan nan nan nan nan nan nan nan nan nan nan nan nan nan nan nan nan nan nan nan nan nan nan nan nan nan nan nan nan nan nan nan nan nan nan nan 0 1 1 1 2 3 4 4 5 4 4 6 6 5 5 6 6 6 7 7 7 8 12 12 17 21 25 25 26
nan nan nan nan nan nan nan nan nan nan nan nan nan nan nan nan nan nan nan nan nan nan nan nan nan nan nan nan nan nan nan nan nan nan nan nan nan nan nan nan nan nan nan nan nan nan nan nan nan nan nan nan nan nan nan nan nan 1 2 3 3 4 5 5 5 6 6 6 5 5 6 5 7 7 7 7 8 8 8 10 10 14 19 29 29 31
nan nan nan nan nan nan nan nan nan nan nan nan nan nan nan nan nan nan nan nan nan nan nan nan nan nan nan nan nan nan nan nan nan nan nan nan nan nan nan nan nan nan nan nan nan nan nan nan nan nan nan nan nan nan nan nan nan 1 2 3 3 3 4 4 4 6 6 6 6 6 6 6 7 7 7 8 8 8 9 9 9 10 13 17 17 26
nan nan nan nan nan nan nan nan nan nan nan nan nan nan nan nan nan nan nan nan nan nan nan nan nan nan nan nan nan nan nan nan nan nan nan nan nan nan nan nan nan nan nan nan nan nan nan nan nan nan nan nan nan nan nan nan nan 0 1 2 2 2 3 4 4 4 6 7 7 7 6 6 6 6 6 7 9 9 9 10 10 9 10 12 12 15
nan nan nan nan nan nan nan nan nan nan nan nan nan nan nan nan nan nan nan nan nan nan nan nan nan nan nan nan nan nan nan nan nan nan nan nan nan nan nan nan nan nan nan nan nan nan nan nan nan nan nan nan nan nan nan nan nan 0 0 0 0 1 2 3 3 5 7 7 8 8 6 7 5 5 6 7 8 8 8 8 8 8 10 9 9 11
nan nan nan nan nan nan nan nan nan nan nan nan nan nan nan nan nan nan nan nan nan nan nan nan nan nan nan nan nan nan nan nan nan nan nan nan nan nan nan nan nan nan nan nan nan nan nan nan nan nan nan nan nan nan nan nan nan 0 nan nan nan 0 2 5 5 5 8 10 11 11 12 13 12 12 10 10 11 11 10 10 10 10 10 10 10 12
nan nan nan nan nan nan nan nan nan nan nan nan nan nan nan nan nan nan nan nan nan nan nan nan nan nan nan nan nan nan nan nan nan nan nan nan nan nan nan nan nan nan nan nan nan nan nan nan nan nan nan nan nan nan nan nan nan nan nan nan nan 0 2 5 5 6 8 10 11 11 13 13 15 15 14 16 15 15 16 17 17 14 14 15 15 15
nan nan nan nan nan nan nan nan nan nan nan nan nan nan nan nan nan nan nan nan nan nan nan nan nan nan nan nan nan nan nan nan nan nan nan nan nan nan nan nan nan nan nan nan nan nan nan nan nan nan nan nan nan nan nan nan nan nan nan nan nan nan 2 4 4 6 6 7 8 8 10 11 12 12 13 17 19 19 20 20 20 22 22 22 22 24
nan nan nan nan nan nan nan nan nan nan nan nan nan nan nan nan nan nan nan nan nan nan nan nan nan nan nan nan nan nan nan nan nan nan nan nan nan nan nan nan nan nan nan nan nan nan nan nan nan nan nan nan nan nan nan nan nan nan nan nan nan nan 1 3 3 4 5 5 6 6 7 8 9 9 11 11 14 14 17 18 18 19 19 22 22 20
nan nan nan nan nan nan nan nan nan nan nan nan nan nan nan nan nan nan nan nan nan nan nan nan nan nan nan nan nan nan nan nan nan nan nan nan nan nan nan nan nan nan nan nan nan nan nan nan nan nan nan nan nan nan nan nan nan nan nan nan nan nan 1 1 1 3 4 4 5 5 6 8 9 9 10 11 13 13 14 14 14 15 17 17 17 17
nan nan nan nan nan nan nan nan nan nan nan nan nan nan nan nan nan nan nan nan nan nan nan nan nan nan nan nan nan nan nan nan nan nan nan nan nan nan nan nan nan nan nan nan nan nan nan nan nan nan nan nan nan nan nan nan nan nan nan 0 0 1 2 3 3 4 4 4 4 4 4 5 7 7 9 11 12 12 13 13 13 14 13 13 13 15
nan nan nan nan nan nan nan nan nan nan nan 0 2 2 0 nan nan nan nan nan nan nan nan nan nan nan nan nan nan nan nan nan nan nan nan nan nan nan nan nan nan nan nan nan nan nan nan nan nan nan nan nan nan nan nan nan nan nan nan 0 0 1 2 3 3 3 4 4 4 4 3 4 5 5 7 9 10 10 12 13 13 14 13 9 9 nan
nan nan nan nan nan nan nan nan nan nan nan 1 3 3 0 nan nan nan nan nan nan nan nan nan nan nan nan nan nan nan nan nan nan nan nan nan nan nan nan nan nan nan nan nan nan nan nan nan nan nan nan nan nan nan nan nan nan nan 0 nan nan 0 1 1 1 2 3 3 3 3 4 4 4 4 4 6 9 9 10 11 11 13 12 2 2 nan
nan nan nan nan nan nan nan nan nan nan nan 0 2 2 nan nan nan nan nan nan nan nan nan nan nan nan nan nan nan nan nan nan nan nan nan nan nan nan nan nan nan nan nan nan nan nan nan nan nan nan nan nan nan nan nan nan nan nan nan 0 0 0 0 0 0 0 2 3 4 4 5 5 4 4 4 5 7 7 8 10 10 8 4 nan nan nan
nan nan nan nan nan nan nan nan nan nan 0 1 1 1 nan nan nan nan nan nan nan nan nan nan nan nan nan nan nan nan nan nan nan nan nan nan nan nan nan nan nan nan nan nan nan nan nan nan nan nan nan nan nan nan nan nan nan nan nan nan nan nan 1 nan nan 0 1 2 3 3 4 6 6 6 5 5 5 5 7 9 9 7 nan nan nan nan
nan nan nan nan nan nan nan nan nan nan nan nan nan nan nan nan nan nan nan nan nan nan nan nan nan nan nan nan nan nan nan nan nan nan nan nan nan nan nan nan nan nan nan nan nan nan nan nan nan nan nan nan nan nan nan nan nan nan nan nan nan nan nan nan nan nan nan nan 1 1 2 3 3 3 4 4 5 5 6 6 6 7 nan nan nan nan
nan nan nan nan nan nan nan nan nan nan nan nan nan nan nan nan nan nan nan nan nan nan nan nan nan nan nan nan nan nan nan nan nan nan nan nan nan nan nan nan nan nan nan nan nan nan nan nan nan nan nan nan nan nan nan nan nan nan nan nan nan nan nan nan nan nan nan nan nan nan 2 1 2 2 2 3 4 4 5 6 6 8 1 nan nan nan
nan nan nan nan nan nan nan nan nan nan nan nan nan nan nan nan nan nan nan nan nan nan nan nan nan nan nan nan nan nan nan nan nan nan nan nan nan nan nan nan nan nan nan nan nan nan nan nan nan nan nan nan nan nan nan nan nan nan nan nan nan nan nan nan nan nan nan nan nan nan nan nan nan nan 1 2 3 3 4 5 5 7 9 nan nan nan
nan nan nan nan nan nan nan nan nan nan nan nan nan nan nan nan nan nan nan nan nan nan nan nan nan nan nan nan nan nan nan nan nan nan nan nan nan nan nan nan nan nan nan nan nan nan nan nan nan nan nan nan nan nan nan nan nan nan nan nan nan nan nan nan nan nan nan nan nan nan nan nan nan nan nan 0 2 2 3 5 5 7 8 11 11 0
nan nan nan nan nan nan nan nan nan nan nan nan nan nan nan nan nan nan nan nan nan nan nan nan nan nan nan nan nan nan nan nan nan nan nan nan nan nan nan nan nan nan nan nan nan nan nan nan nan nan nan nan nan nan nan nan nan nan nan nan nan nan nan nan nan nan nan nan nan nan nan nan nan nan nan 1 4 4 3 5 5 6 7 8 8 8
nan nan nan nan nan nan nan nan nan nan nan nan nan nan nan nan nan nan nan nan nan nan nan nan nan nan nan nan nan nan nan nan nan nan nan nan nan nan nan nan nan nan nan nan nan nan nan nan nan nan nan nan nan nan nan nan nan nan nan nan nan nan nan nan nan nan nan nan nan nan nan nan nan nan nan 1 0 0 1 5 5 4 6 7 7 8
nan nan nan nan nan nan nan nan nan nan nan nan nan nan nan nan nan nan nan nan nan nan nan nan nan nan nan nan nan nan nan nan nan nan nan nan nan nan nan nan nan nan nan nan nan nan nan nan nan nan nan nan nan nan nan nan nan nan nan nan nan nan nan nan nan nan nan nan nan nan nan nan nan nan nan nan nan nan nan nan nan nan 1 0 0 6
nan nan nan nan nan nan nan nan nan nan nan nan nan nan nan nan nan nan nan nan nan nan nan nan nan nan nan nan nan nan nan nan nan nan nan nan nan nan nan nan nan nan nan nan nan nan nan nan nan nan nan nan nan nan nan nan nan nan nan nan nan nan nan nan nan nan nan nan nan nan nan nan nan nan nan nan nan nan nan nan nan nan nan nan nan nan
nan nan nan nan nan nan nan nan nan nan nan nan nan nan nan nan nan nan nan nan nan nan nan nan nan nan nan nan nan nan nan nan nan nan nan nan nan nan nan nan nan nan nan nan nan nan nan nan nan nan nan nan nan nan nan nan nan nan nan nan nan nan nan nan nan nan nan nan nan nan nan nan nan nan nan nan nan nan nan nan nan nan nan nan nan nan
nan nan nan nan nan nan nan nan nan nan nan nan nan nan nan nan nan nan nan nan nan nan nan nan nan nan nan nan nan nan nan nan nan nan nan nan nan nan nan nan nan nan nan nan nan nan nan nan nan nan nan nan nan nan nan nan nan nan 1 nan nan nan nan nan nan nan nan nan nan nan nan nan nan nan nan nan nan nan nan nan nan nan nan nan nan nan
nan nan nan nan nan nan nan nan nan nan nan nan nan nan nan nan nan nan nan nan nan nan nan nan nan nan nan nan nan nan nan nan nan nan nan nan nan nan nan nan nan nan nan nan nan nan nan 0 0 nan nan nan nan nan nan nan nan nan nan nan nan nan nan nan nan nan nan nan nan nan nan nan nan nan nan nan nan nan nan nan nan nan nan nan nan nan
nan nan nan nan nan nan nan nan nan nan nan nan nan nan nan nan nan nan nan nan nan nan nan nan nan nan nan nan nan nan nan nan nan nan nan nan nan nan nan nan nan nan nan nan nan nan nan 1 1 0 nan nan nan nan nan nan nan nan nan nan nan nan nan nan nan nan nan nan nan nan nan nan nan nan nan nan nan nan nan nan nan nan nan nan nan nan
nan nan nan nan nan nan nan nan nan nan nan nan nan nan nan nan nan nan nan nan nan nan nan nan nan nan nan nan nan nan nan nan nan nan nan nan nan nan nan nan nan nan nan nan nan nan nan 1 1 nan nan nan nan nan nan nan nan nan nan nan nan nan nan nan nan nan nan nan nan nan nan nan nan nan nan nan nan nan nan nan nan nan nan nan nan nan
nan nan nan nan nan nan nan nan nan nan nan nan nan nan nan nan nan nan nan nan nan nan nan nan nan nan nan nan nan nan nan nan nan nan nan nan nan nan nan nan nan nan nan nan nan nan nan nan nan nan nan nan nan nan nan nan nan nan nan nan nan nan nan nan nan nan nan nan nan nan nan nan nan nan nan nan nan nan nan nan nan nan nan nan nan nan
nan nan nan nan nan nan nan nan nan nan nan nan nan nan nan nan nan nan nan nan nan nan nan nan nan nan nan nan nan nan nan nan nan nan nan nan nan nan nan nan nan nan nan nan nan nan nan nan nan nan nan nan nan nan nan nan nan nan nan nan nan nan nan nan nan nan nan nan nan nan nan nan nan nan nan nan nan nan nan nan nan nan nan nan nan nan
nan nan nan nan nan nan nan nan nan nan nan nan nan nan nan nan nan nan nan nan nan nan nan nan nan nan nan nan nan nan nan nan nan nan nan nan nan nan nan nan nan nan nan nan nan nan nan nan nan nan nan nan nan nan nan nan nan nan nan nan nan nan nan nan nan nan nan nan nan nan nan nan nan nan nan nan nan nan nan nan nan nan nan nan nan nan
nan nan nan nan nan nan nan nan nan nan nan nan nan nan nan nan nan nan nan nan nan nan nan nan nan nan nan nan nan nan nan nan nan nan nan nan nan nan nan nan nan nan nan nan nan nan nan nan nan nan nan nan nan nan nan nan nan nan nan nan nan nan nan nan nan nan nan nan nan nan nan nan nan nan nan nan nan nan nan nan nan nan nan nan nan nan
nan nan nan nan nan nan nan nan nan nan nan nan nan nan nan nan nan nan nan nan nan nan nan nan nan nan nan nan nan nan nan nan nan nan nan nan nan nan nan nan nan nan nan nan nan nan 0 0 0 nan nan nan nan nan nan nan nan nan nan nan nan nan nan nan nan nan nan nan nan nan nan nan nan nan nan nan nan nan nan nan nan nan nan nan nan nan
nan nan nan nan nan nan nan nan nan nan nan nan nan nan nan nan nan nan nan nan nan nan nan nan nan nan nan nan nan nan nan nan nan nan nan nan nan nan nan nan nan nan nan nan nan nan nan 0 0 4 7 1 nan nan nan nan nan nan nan nan nan nan nan nan nan nan nan nan nan nan nan nan nan nan nan nan nan nan nan nan nan nan nan nan nan nan
nan nan nan nan nan nan nan nan nan nan nan nan nan nan nan nan nan nan nan nan nan nan nan nan nan nan nan nan nan nan nan nan nan nan nan nan nan nan nan nan nan nan nan nan nan nan nan nan nan nan nan 8 nan nan nan nan nan nan nan nan nan nan nan nan nan nan nan nan nan nan nan nan nan nan nan nan nan nan nan nan nan nan nan nan nan nan
CIN
nan nan nan nan nan nan nan nan nan nan nan -14 -14 -14 -16 -8 nan nan nan nan nan nan nan nan nan nan nan -0 -0 -0 -0 -0 -0 -0 -0 -0 -0 -0 -0 -0 -0 -0 -0 -0 -0 -0 -0 -0 -0 -0 -0 -0 -0 -0 -0 -0 -0 -0 -0 -0 -0 -0 -0 -0 -0 -0 -0 -0 -0 -0 -0 -0 -0 -0 -0 -0 -0 -0 -0 -0 -0 -0 -0 -0 -0 -0
nan nan nan nan nan nan -10 nan nan nan nan nan nan nan nan -22 -20 -20 nan nan nan nan nan nan nan nan nan nan -0 -0 -0 -0 -0 -0 -0 -0 -0 -0 -0 -0 -0 -0 -0 -0 -0 -0 -0 -0 -0 -0 -0 -0 -0 -0 nan nan nan nan nan -0 -0 -0 -0 -0 -0 -0 -0 -0 -0 -0 -0 -0 -0 -0 -0 -0 -0 -0 -0 -0 -0 -0 -0 -0 -0 -0
nan nan nan nan nan nan nan nan nan nan nan nan nan nan nan nan nan nan nan nan nan nan nan nan nan nan nan nan nan nan nan -0 -0 -0 -0 -0 -0 -0 -0 -0 -0 -0 -0 -0 -0 -0 -0 -0 -0 -0 -0 -0 nan nan nan nan nan nan -0 -0 -0 -0 -0 -0 -0 -0 -0 -0 -0 -0 -0 -0 -0 -0 -0 -0 -0 -0 -0 -0 -0 -0 -0 -0 -0 -0
nan nan nan nan nan nan nan nan nan nan nan nan nan nan nan nan nan nan nan nan nan nan nan nan nan nan nan nan nan nan nan nan nan nan -0 -0 -0 -0 -0 -0 -0 -0 -0 -0 -0 -0 -0 -0 -0 -0 -0 nan -0 -0 -0 -0 -0 -0 -0 -0 -0 -0 -0 -0 -0 -0 -0 -0 -0 -0 -0 -0 -0 -0 -0 -0 -0 -0 -0 -0 -0 -0 -0 -0 -0 -0
nan nan nan nan nan nan nan nan nan nan nan nan nan nan nan nan nan nan nan nan nan nan nan nan nan nan nan nan nan nan nan nan nan nan nan nan nan nan -0 -0 -0 -0 -0 -0 -0 -0 -0 -0 -0 -0 -0 -0 -0 -0 -0 nan nan nan nan nan nan nan nan nan nan nan nan nan -0 -0 -0 -0 -0 -0 -0 -0 -0 -0 -0 -0 -0 -0 -0 -0 -0 -0
nan nan nan nan nan nan nan nan nan nan nan nan nan nan nan nan nan nan nan nan nan nan nan nan nan nan nan nan nan nan nan nan nan nan nan nan nan nan nan nan nan nan -0 -0 -0 -0 -0 -0 -0 -0 nan nan nan nan nan nan nan nan nan nan nan nan nan nan nan nan nan nan nan nan -0 -0 -0 -0 -0 -0 -0 -0 -0 -0 -0 -0 -0 -0 -0 -0
nan nan nan nan nan nan nan nan nan nan nan nan nan nan nan nan nan nan nan nan nan nan nan nan nan nan nan nan nan nan nan nan nan nan nan nan nan nan nan nan nan nan -0 -0 -0 -0 -0 nan nan nan nan nan nan nan nan nan nan nan nan nan nan nan nan nan nan nan nan nan nan nan nan nan -0 -0 -0 -0 -0 -0 -0 -0 -0 -0 -0 -0 -0 -0
nan nan nan nan nan nan nan nan nan nan nan nan nan nan nan nan nan nan nan nan nan nan nan nan nan nan nan nan nan nan nan nan nan nan nan nan nan nan nan nan nan nan nan nan nan nan nan nan nan nan nan nan nan nan nan nan nan nan nan nan nan nan nan nan nan nan nan nan nan nan nan nan nan nan nan nan -0 -0 -0 -0 -0 -0 -0 -0 -0 -0
nan nan nan nan nan nan nan nan nan nan nan nan nan nan nan nan nan nan nan nan nan nan nan nan nan nan nan nan nan nan nan nan nan nan nan nan nan nan nan nan nan nan nan nan nan nan nan nan nan nan nan nan nan nan nan nan nan nan nan nan nan nan nan nan nan nan nan nan nan nan nan nan nan nan nan nan nan nan -0 -0 -0 -0 -0 -0 -0 -0
nan nan nan nan nan nan nan nan nan nan nan nan nan nan nan nan nan nan nan nan nan nan nan nan nan nan nan nan nan nan nan nan nan nan nan nan nan nan nan nan nan nan nan nan nan nan nan nan nan nan nan nan nan nan nan nan nan nan nan nan nan nan nan nan nan nan nan nan nan nan nan nan nan nan nan nan nan nan nan -0 -0 -0 -0 -0 -0 -0
nan nan nan nan nan nan nan nan nan nan nan nan nan nan nan nan nan nan nan nan nan nan nan nan nan nan nan nan nan nan nan nan nan nan nan nan nan nan nan nan nan nan nan nan nan nan nan nan nan nan nan nan nan nan nan nan nan nan nan nan nan nan nan nan nan nan nan nan nan nan nan nan nan nan nan nan nan nan nan nan nan -0 -0 -0 -0 -0
nan nan nan nan nan nan nan nan nan nan nan nan nan nan nan nan nan nan nan nan nan nan nan nan nan nan nan nan nan nan nan nan nan nan nan nan nan nan nan nan nan nan nan nan nan nan nan nan nan nan nan nan nan nan nan nan nan nan nan nan nan nan nan nan nan nan nan nan nan nan nan nan nan nan nan nan nan nan nan nan nan -0 -0 -0 -0 -0
nan nan nan nan nan nan nan nan nan nan nan nan nan nan nan nan nan nan nan nan nan nan nan nan nan nan nan nan nan nan nan nan nan nan nan nan nan nan nan nan nan nan nan nan nan nan nan nan nan nan nan nan nan nan nan nan nan nan nan nan nan nan nan -0 -0 -0 -0 -0 -0 -0 -0 -0 nan nan nan nan nan nan nan nan nan -0 -0 -0 -0 -0
nan nan nan nan nan nan nan nan nan nan nan nan nan nan nan nan nan nan nan nan nan nan nan nan nan nan nan nan nan nan nan nan nan nan nan nan nan nan nan nan nan nan nan nan nan nan nan nan nan nan nan nan nan nan nan nan nan nan nan nan nan nan nan -0 -0 -0 -0 -0 -0 -0 -0 -0 -0 -0 -0 -0 -0 -0 -0 -0 -0 -0 -0 -0 -0 -0
nan nan nan nan nan nan nan nan nan nan nan nan nan nan nan nan nan nan nan nan nan nan nan nan nan nan nan nan nan nan nan nan nan nan nan nan nan nan nan nan nan nan nan nan nan nan nan nan nan nan nan nan nan nan nan nan nan nan nan nan nan nan -0 -0 -0 -0 -0 -0 -0 -0 -0 -0 -0 -0 -0 -0 -0 -0 -0 -0 -0 -0 -0 -0 -0 -0
nan nan nan nan nan nan nan nan nan nan nan nan nan nan nan nan nan nan nan nan nan nan nan nan nan nan nan nan nan nan nan nan nan nan nan nan nan nan nan nan nan nan nan nan nan nan nan nan nan nan nan nan nan nan nan nan nan -0 nan nan nan -0 -0 -0 -0 -0 -0 -0 -0 -0 -0 -0 -0 -0 -0 -0 -0 -0 -0 -0 -0 -0 -0 -0 -0 -0
nan nan nan nan nan nan nan nan nan nan nan nan nan nan nan nan nan nan nan nan nan nan nan nan nan nan nan nan nan nan nan nan nan nan nan nan nan nan nan nan nan nan nan nan nan nan nan nan nan nan nan nan nan nan nan nan nan -0 -0 -0 -0 -0 -0 -0 -0 -0 -0 -0 -0 -0 -0 -0 -0 -0 -0 -0 -0 -0 -0 -0 -0 -0 -0 -0 -0 -0
nan nan nan nan nan nan nan nan nan nan nan nan nan nan nan nan nan nan nan nan nan nan nan nan nan nan nan nan nan nan nan nan nan nan nan nan nan nan nan nan nan nan nan nan nan nan nan nan nan nan nan nan nan nan nan nan nan -0 -0 -0 -0 -0 -0 -0 -0 -0 -0 -0 -0 -0 -0 -0 -0 -0 -0 -0 -0 -0 -0 -0 -0 -0 -0 -0 -0 -0
nan nan nan nan nan nan nan nan nan nan nan nan nan nan nan nan nan nan nan nan nan nan nan nan nan nan nan nan nan nan nan nan nan nan nan nan nan nan nan nan nan nan nan nan nan nan nan nan nan nan nan nan nan nan nan nan nan -0 -0 -0 -0 -0 -0 -0 -0 -0 -0 -0 -0 -0 -0 -0 -0 -0 -0 -0 -0 -0 -0 -0 -0 -0 -0 -0 -0 -0
nan nan nan nan nan nan nan nan nan nan nan nan nan nan nan nan nan nan nan nan nan nan nan nan nan nan nan nan nan nan nan nan nan nan nan nan nan nan nan nan nan nan nan nan nan nan nan nan nan nan nan nan nan nan nan nan nan -0 -0 -0 -0 -0 -0 -0 -0 -0 -0 -0 -0 -0 -0 -0 -0 -0 -0 -0 -0 -0 -0 -0 -0 -0 -0 -0 -0 -0
nan nan nan nan nan nan nan nan nan nan nan nan nan nan nan nan nan nan nan nan nan nan nan nan nan nan nan nan nan nan nan nan nan nan nan nan nan nan nan nan nan nan nan nan nan nan nan nan nan nan nan nan nan nan nan nan nan -0 -0 -0 -0 -0 -0 -0 -0 -0 -0 -0 -0 -0 -0 -0 -0 -0 -0 -0 -0 -0 -0 -0 -0 -0 -0 -0 -0 -0
nan nan nan nan nan nan nan nan nan nan nan nan nan nan nan nan nan nan nan nan nan nan nan nan nan nan nan nan nan nan nan nan nan nan nan nan nan nan nan nan nan nan nan nan nan nan nan nan nan nan nan nan nan nan nan nan nan -0 nan nan nan -0 -0 -0 -0 -0 -0 -0 -0 -0 -0 -0 -0 -0 -0 -0 -0 -0 -0 -0 -0 -0 -0 -0 -0 -0
nan nan nan nan nan nan nan nan nan nan nan nan nan nan nan nan nan nan nan nan nan nan nan nan nan nan nan nan nan nan nan nan nan nan nan nan nan nan nan nan nan nan nan nan nan nan nan nan nan nan nan nan nan nan nan nan nan nan nan nan nan -0 -0 -0 -0 -0 -0 -0 -0 -0 -0 -0 -0 -0 -0 -0 -0 -0 -0 -0 -0 -0 -0 -0 -0 -0
nan nan nan nan nan nan nan nan nan nan nan nan nan nan nan nan nan nan nan nan nan nan nan nan nan nan nan nan nan nan nan nan nan nan nan nan nan nan nan nan nan nan nan nan nan nan nan nan nan nan nan nan nan nan nan nan nan nan nan nan nan nan -0 -0 -0 -0 -0 -0 -0 -0 -0 -0 -0 -0 -0 -0 -0 -0 -0 -0 -0 -0 -0 -0 -0 -0
nan nan nan nan nan nan nan nan nan nan nan nan nan nan nan nan nan nan nan nan nan nan nan nan nan nan nan nan nan nan nan nan nan nan nan nan nan nan nan nan nan nan nan nan nan nan nan nan nan nan nan nan nan nan nan nan nan nan nan nan nan nan -0 -0 -0 -0 -0 -0 -0 -0 -0 -0 -0 -0 -0 -0 -0 -0 -0 -0 -0 -0 -0 -0 -0 -0
nan nan nan nan nan nan nan nan nan nan nan nan nan nan nan nan nan nan nan nan nan nan nan nan nan nan nan nan nan nan nan nan nan nan nan nan nan nan nan nan nan nan nan nan nan nan nan nan nan nan nan nan nan nan nan nan nan nan nan nan nan nan -0 -0 -0 -0 -0 -0 -0 -0 -0 -0 -0 -0 -0 -0 -0 -0 -0 -0 -0 -0 -0 -0 -0 -0
nan nan nan nan nan nan nan nan nan nan nan nan nan nan nan nan nan nan nan nan nan nan nan nan nan nan nan nan nan nan nan nan nan nan nan nan nan nan nan nan nan nan nan nan nan nan nan nan nan nan nan nan nan nan nan nan nan nan nan -0 -0 -0 -0 -0 -0 -0 -0 -0 -0 -0 -0 -0 -0 -0 -0 -0 -0 -0 -0 -0 -0 -0 -0 -0 -0 -0
nan nan nan nan nan nan nan nan nan nan nan -0 -0 -0 -19 nan nan nan nan nan nan nan nan nan nan nan nan nan nan nan nan nan nan nan nan nan nan nan nan nan nan nan nan nan nan nan nan nan nan nan nan nan nan nan nan nan nan nan nan -0 -0 -0 -0 -0 -0 -0 -0 -0 -0 -0 -0 -0 -0 -0 -0 -0 -0 -0 -0 -0 -0 -0 -0 -0 -0 nan
nan nan nan nan nan nan nan nan nan nan nan -0 -0 -0 -16 nan nan nan nan nan nan nan nan nan nan nan nan nan nan nan nan nan nan nan nan nan nan nan nan nan nan nan nan nan nan nan nan nan nan nan nan nan nan nan nan nan nan nan -0 nan nan -0 -0 -0 -0 -0 -0 -0 -0 -0 -0 -0 -0 -0 -0 -0 -0 -0 -0 -0 -0 -0 -0 -16 -16 nan
nan nan nan nan nan nan nan nan nan nan nan -0 -0 -0 nan nan nan nan nan nan nan nan nan nan nan nan nan nan nan nan nan nan nan nan nan nan nan nan nan nan nan nan nan nan nan nan nan nan nan nan nan nan nan nan nan nan nan nan nan -3 -3 -0 -0 -0 -0 -0 -0 -0 -0 -0 -0 -0 -0 -0 -0 -0 -0 -0 -0 -0 -0 -0 -1 nan nan nan
nan nan nan nan nan nan nan nan nan nan -0 -0 -0 -0 nan nan nan nan nan nan nan nan nan nan nan nan nan nan nan nan nan nan nan nan nan nan nan nan nan nan nan nan nan nan nan nan nan nan nan nan nan nan nan nan nan nan nan nan nan nan nan nan -0 nan nan -0 -0 -0 -0 -0 -0 -0 -0 -0 -0 -0 -0 -0 -0 -0 -0 -0 nan nan nan nan
nan nan nan nan nan nan nan nan nan nan nan nan nan nan nan nan nan nan nan nan nan nan nan nan nan nan nan nan nan nan nan nan nan nan nan nan nan nan nan nan nan nan nan nan nan nan nan nan nan nan nan nan nan nan nan nan nan nan nan nan nan nan nan nan nan nan nan nan -0 -0 -0 -0 -0 -0 -0 -0 -0 -0 -0 -0 -0 -0 nan nan nan nan
nan nan nan nan nan nan nan nan nan nan nan nan nan nan nan nan nan nan nan nan nan nan nan nan nan nan nan nan nan nan nan nan nan nan nan nan nan nan nan nan nan nan nan nan nan nan nan nan nan nan nan nan nan nan nan nan nan nan nan nan nan nan nan nan nan nan nan nan nan nan -0 -0 -0 -0 -0 -0 -0 -0 -0 -0 -0 -0 -8 nan nan nan
nan nan nan nan nan nan nan nan nan nan nan nan nan nan nan nan nan nan nan nan nan nan nan nan nan nan nan nan nan nan nan nan nan nan nan nan nan nan nan nan nan nan nan nan nan nan nan nan nan nan nan nan nan nan nan nan nan nan nan nan nan nan nan nan nan nan nan nan nan nan nan nan nan nan -0 -0 -0 -0 -0 -0 -0 -0 -0 nan nan nan
nan nan nan nan nan nan nan nan nan nan nan nan nan nan nan nan nan nan nan nan nan nan nan nan nan nan nan nan nan nan nan nan nan nan nan nan nan nan nan nan nan nan nan nan nan nan nan nan nan nan nan nan nan nan nan nan nan nan nan nan nan nan nan nan nan nan nan nan nan nan nan nan nan nan nan -13 -0 -0 -0 -0 -0 -0 -0 -0 -0 -17
nan nan nan nan nan nan nan nan nan nan nan nan nan nan nan nan nan nan nan nan nan nan nan nan nan nan nan nan nan nan nan nan nan nan nan nan nan nan nan nan nan nan nan nan nan nan nan nan nan nan nan nan nan nan nan nan nan nan nan nan nan nan nan nan nan nan nan nan nan nan nan nan nan nan nan -6 -0 -0 -0 -0 -0 -0 -0 -0 -0 -0
nan nan nan nan nan nan nan nan nan nan nan nan nan nan nan nan nan nan nan nan nan nan nan nan nan nan nan nan nan nan nan nan nan nan nan nan nan nan nan nan nan nan nan nan nan nan nan nan nan nan nan nan nan nan nan nan nan nan nan nan nan nan nan nan nan nan nan nan nan nan nan nan nan nan nan -8 -14 -14 -3 -0 -0 -0 -0 -0 -0 -0
nan nan nan nan nan nan nan nan nan nan nan nan nan nan nan nan nan nan nan nan nan nan nan nan nan nan nan nan nan nan nan nan nan nan nan nan nan nan nan nan nan nan nan nan nan nan nan nan nan nan nan nan nan nan nan nan nan nan nan nan nan nan nan nan nan nan nan nan nan nan nan nan nan nan nan nan nan nan nan nan nan nan -0 -4 -4 -0
nan nan nan nan nan nan nan nan nan nan nan nan nan nan nan nan nan nan nan nan nan nan nan nan nan nan nan nan nan nan nan nan nan nan nan nan nan nan nan nan nan nan nan nan nan nan nan nan nan nan nan nan nan nan nan nan nan nan nan nan nan nan nan nan nan nan nan nan nan nan nan nan nan nan nan nan nan nan nan nan nan nan nan nan nan nan
nan nan nan nan nan nan nan nan nan nan nan nan nan nan nan nan nan nan nan nan nan nan nan nan nan nan nan nan nan nan nan nan nan nan nan nan nan nan nan nan nan nan nan nan nan nan nan nan nan nan nan nan nan nan nan nan nan nan nan nan nan nan nan nan nan nan nan nan nan nan nan nan nan nan nan nan nan nan nan nan nan nan nan nan nan nan
nan nan nan nan nan nan nan nan nan nan nan nan nan nan nan nan nan nan nan nan nan nan nan nan nan nan nan nan nan nan nan nan nan nan nan nan nan nan nan nan nan nan nan nan nan nan nan nan nan nan nan nan nan nan nan nan nan nan -0 nan nan nan nan nan nan nan nan nan nan nan nan nan nan nan nan nan nan nan nan nan nan nan nan nan nan nan
nan nan nan nan nan nan nan nan nan nan nan nan nan nan nan nan nan nan nan nan nan nan nan nan nan nan nan nan nan nan nan nan nan nan nan nan nan nan nan nan nan nan nan nan nan nan nan -5 -5 nan nan nan nan nan nan nan nan nan nan nan nan nan nan nan nan nan nan nan nan nan nan nan nan nan nan nan nan nan nan nan nan nan nan nan nan nan
nan nan nan nan nan nan nan nan nan nan nan nan nan nan nan nan nan nan nan nan nan nan nan nan nan nan nan nan nan nan nan nan nan nan nan nan nan nan nan nan nan nan nan nan nan nan nan -3 -3 -7 nan nan nan nan nan nan nan nan nan nan nan nan nan nan nan nan nan nan nan nan nan nan nan nan nan nan nan nan nan nan nan nan nan nan nan nan
nan nan nan nan nan nan nan nan nan nan nan nan nan nan nan nan nan nan nan nan nan nan nan nan nan nan nan nan nan nan nan nan nan nan nan nan nan nan nan nan nan nan nan nan nan nan nan -3 -3 nan nan nan nan nan nan nan nan nan nan nan nan nan nan nan nan nan nan nan nan nan nan nan nan nan nan nan nan nan nan nan nan nan nan nan nan nan
nan nan nan nan nan nan nan nan nan nan nan nan nan nan nan nan nan nan nan nan nan nan nan nan nan nan nan nan nan nan nan nan nan nan nan nan nan nan nan nan nan nan nan nan nan nan nan nan nan nan nan nan nan nan nan nan nan nan nan nan nan nan nan nan nan nan nan nan nan nan nan nan nan nan nan nan nan nan nan nan nan nan nan nan nan nan
nan nan nan nan nan nan nan nan nan nan nan nan nan nan nan nan nan nan nan nan nan nan nan nan nan nan nan nan nan nan nan nan nan nan nan nan nan nan nan nan nan nan nan nan nan nan nan nan nan nan nan nan nan nan nan nan nan nan nan nan nan nan nan nan nan nan nan nan nan nan nan nan nan nan nan nan nan nan nan nan nan nan nan nan nan nan
nan nan nan nan nan nan nan nan nan nan nan nan nan nan nan nan nan nan nan nan nan nan nan nan nan nan nan nan nan nan nan nan nan nan nan nan nan nan nan nan nan nan nan nan nan nan nan nan nan nan nan nan nan nan nan nan nan nan nan nan nan nan nan nan nan nan nan nan nan nan nan nan nan nan nan nan nan nan nan nan nan nan nan nan nan nan
nan nan nan nan nan nan nan nan nan nan nan nan nan nan nan nan nan nan nan nan nan nan nan nan nan nan nan nan nan nan nan nan nan nan nan nan nan nan nan nan nan nan nan nan nan nan nan nan nan nan nan nan nan nan nan nan nan nan nan nan nan nan nan nan nan nan nan nan nan nan nan nan nan nan nan nan nan nan nan nan nan nan nan nan nan nan
nan nan nan nan nan nan nan nan nan nan nan nan nan nan nan nan nan nan nan nan nan nan nan nan nan nan nan nan nan nan nan nan nan nan nan nan nan nan nan nan nan nan nan nan nan nan -8 -12 -12 nan nan nan nan nan nan nan nan nan nan nan nan nan nan nan nan nan nan nan nan nan nan nan nan nan nan nan nan nan nan nan nan nan nan nan nan nan
nan nan nan nan nan nan nan nan nan nan nan nan nan nan nan nan nan nan nan nan nan nan nan nan nan nan nan nan nan nan nan nan nan nan nan nan nan nan nan nan nan nan nan nan nan nan nan -7 -7 -3 -1 -3 nan nan nan nan nan nan nan nan nan nan nan nan nan nan nan nan nan nan nan nan nan nan nan nan nan nan nan nan nan nan nan nan nan nan
nan nan nan nan nan nan nan nan nan nan nan nan nan nan nan nan nan nan nan nan nan nan nan nan nan nan nan nan nan nan nan nan nan nan nan nan nan nan nan nan nan nan nan nan nan nan nan nan nan nan nan -0 nan nan nan nan nan nan nan nan nan nan nan nan nan nan nan nan nan nan nan nan nan nan nan nan nan nan nan nan nan nan nan nan nan nan
Wind_Speed
1 1 1 2 2 2 2 2 2 2 1 1 1 1 1 1 2 2 3 2 2 2 2 2 1 1 1 3 4 4 4 4 4 3 3 3 3 3 3 3 2 2 2 2 2 2 2 2 2 2 2 2 3 3 3 3 4 4 4 4 4 5 5 5 5 6 6 6 6 6 6 6 6 5 4 4 4 4 4 4 5 5 5 5 6 7
1 1 1 2 2 2 2 2 2 2 2 1 1 1 1 1 1 1 1 2 2 2 3 3 2 2 2 2 3 4 4 4 4 3 3 3 3 3 3 3 3 2 2 2 2 2 2 2 2 2 2 2 2 2 2 3 3 3 3 4 4 4 5 5 6 6 6 6 6 7 7 7 6 6 5 5 5 4 4 4 4 4 4 5 5 6
1 1 1 1 2 2 2 2 2 2 1 1 1 1 1 1 1 1 1 1 1 1 1 2 2 3 3 3 3 4 4 4 3 3 3 3 3 3 3 3 2 2 2 1 1 1 1 2 1 1 1 1 1 1 2 2 3 3 3 4 4 5 5 6 6 6 7 7 7 7 7 7 7 7 7 6 6 6 6 5 5 4 4 4 5 5
1 1 1 1 1 2 2 2 1 1 0 0 1 1 1 1 1 1 1 2 2 2 2 1 1 2 3 3 3 3 3 3 3 3 3 3 3 3 2 2 2 2 1 1 1 1 1 1 1 1 1 1 1 1 2 3 3 4 4 5 5 6 6 6 7 7 7 7 7 7 8 8 8 8 8 8 7 7 7 6 6 5 5 5 5 5
1 1 1 1 1 2 2 1 0 1 1 1 1 1 1 1 1 0 1 1 1 2 2 2 1 1 3 2 2 2 3 3 3 3 3 3 3 3 3 2 2 2 2 2 2 2 2 2 1 1 1 1 2 2 3 3 4 5 5 6 6 6 7 7 7 7 8 8 8 8 8 8 8 8 8 8 8 8 8 7 7 6 6 6 6 6
1 1 1 1 1 1 1 1 1 1 1 1 1 1 1 1 1 1 1 1 1 1 2 1 0 1 2 3 3 2 2 2 2 2 2 2 3 3 3 3 3 3 3 2 2 2 2 2 2 2 2 3 3 3 4 4 5 5 6 6 7 7 7 8 8 8 8 8 8 9 9 9 9 9 9 9 9 8 8 8 8 7 7 7 6 6
0 0 0 1 1 1 1 1 1 1 1 1 1 1 0 0 1 1 1 1 1 1 1 1 1 0 2 2 3 2 2 2 2 2 2 2 2 3 3 3 3 3 3 3 3 3 2 2 3 3 3 3 4 4 5 5 6 6 6 7 7 8 8 8 9 9 9 9 9 9 9 9 9 9 9 9 9 9 9 9 8 8 8 7 7 7
1 0 0 0 1 1 1 1 1 1 1 0 0 1 1 1 1 1 1 1 1 0 0 1 1 1 1 1 1 1 1 1 1 1 1 1 2 2 3 3 3 2 2 2 2 2 3 3 3 4 4 4 5 5 5 6 6 7 7 7 8 8 9 9 9 10 10 10 10 10 10 10 9 9 9 9 9 9 9 9 9 9 9 8 8 8
1 1 0 0 1 1 1 1 1 1 1 1 1 0 1 1 1 2 2 1 1 1 1 1 2 2 2 1 1 1 1 2 1 1 1 1 1 2 2 2 2 2 2 2 3 3 4 4 4 5 5 6 6 6 6 6 7 7 7 8 8 9 9 10 10 10 10 10 10 10 10 10 9 9 9 9 9 9 9 9 9 9 9 9 9 9
1 1 0 0 1 1 1 1 1 1 1 1 1 1 1 1 1 2 2 2 2 2 1 2 2 2 2 2 2 2 2 2 1 1 2 1 1 1 1 0 1 2 3 3 4 4 5 5 6 6 6 6 6 6 6 6 7 7 7 8 8 9 9 10 10 10 10 10 10 10 10 10 10 9 9 9 9 9 9 9 9 9 9 9 9 10
1 1 1 1 0 0 1 1 1 1 0 1 1 1 1 1 1 2 2 2 2 3 2 1 1 1 1 2 2 2 2 2 2 2 1 0 1 1 1 1 2 2 3 4 4 5 5 6 6 6 6 6 6 6 6 6 6 6 7 7 8 8 9 9 10 10 10 10 10 10 10 10 9 9 9 9 9 9 9 9 9 9 9 9 10 10
1 1 1 1 0 0 0 1 1 1 2 2 3 3 2 1 1 2 1 1 1 2 2 1 1 0 1 0 1 2 2 2 2 2 2 1 1 1 1 1 2 2 3 3 4 5 6 7 7 7 7 7 7 7 6 6 6 6 6 7 8 8 9 9 9 9 9 9 9 9 9 9 9 9 9 9 9 9 9 9 9 9 9 10 10 10
1 1 1 1 1 0 0 1 1 2 2 2 2 1 1 1 0 1 1 0 1 1 1 1 2 1 1 1 1 1 1 1 2 2 2 2 2 1 1 1 1 1 2 2 3 4 5 7 7 7 7 7 7 7 7 6 6 6 6 7 8 9 9 9 9 9 9 8 8 8 8 8 8 8 8 8 8 9 9 9 9 9 9 10 10 10
1 1 1 1 1 0 0 1 1 1 1 1 1 1 1 1 0 1 1 1 1 1 0 1 1 2 2 2 1 1 1 1 2 2 2 2 2 1 1 1 1 1 1 1 2 2 4 4 5 5 6 6 6 6 5 5 6 6 7 8 9 9 10 10 9 9 9 8 8 8 8 8 8 8 8 8 8 8 8 8 9 9 9 10 10 10
1 1 1 1 0 0 0 1 1 1 1 1 1 1 0 1 1 2 2 2 2 2 2 2 2 2 2 2 2 1 1 2 2 2 3 3 2 1 1 1 1 1 1 1 1 2 3 2 2 2 3 4 4 4 4 4 5 7 8 8 9 10 10 10 10 9 9 9 9 9 8 8 8 8 7 8 8 8 8 8 8 8 9 9 10 10
1 1 1 0 0 1 0 1 1 1 1 1 0 1 1 1 1 1 2 1 1 2 2 2 2 2 3 3 2 1 1 2 2 2 2 3 3 2 1 1 1 1 1 1 1 2 2 2 1 1 2 4 5 6 7 6 7 8 8 9 9 10 10 10 10 9 9 9 9 9 9 8 8 8 8 8 8 8 8 8 8 8 8 9 9 9
1 1 1 0 0 1 1 1 1 1 1 0 1 1 1 1 1 1 1 0 1 1 1 1 1 1 2 3 3 2 1 2 2 1 1 2 3 2 1 0 1 1 1 1 1 1 1 1 1 2 2 4 6 8 8 8 8 8 9 9 9 10 10 10 10 10 9 9 9 9 9 9 8 8 8 8 8 8 8 8 8 8 8 8 9 9
0 1 1 1 1 1 1 0 0 1 1 1 1 1 1 1 1 1 1 1 1 1 1 1 1 0 1 2 3 2 0 2 2 1 1 2 3 2 1 0 0 1 1 1 2 2 1 1 2 2 4 7 8 9 9 9 9 9 9 9 9 9 10 10 10 10 10 10 9 9 9 9 9 9 9 9 9 9 9 9 9 9 8 8 9 9
1 1 1 1 1 1 0 0 1 1 1 1 1 1 1 1 1 1 1 1 1 1 1 1 1 1 1 2 3 3 0 2 2 1 1 2 3 3 1 1 1 0 1 1 2 2 2 2 3 4 6 8 9 9 9 9 9 9 9 9 9 9 10 10 10 10 10 10 10 9 9 9 9 9 9 9 9 9 9 9 9 9 9 9 9 9
1 1 1 2 1 1 1 1 1 1 1 1 1 1 1 1 2 2 1 1 1 1 1 1 1 1 1 2 3 2 0 2 2 1 0 2 3 3 2 1 0 1 1 2 2 2 2 2 2 4 6 8 9 9 9 9 9 8 8 9 9 10 10 10 10 10 10 10 10 9 9 9 9 9 10 10 10 10 10 10 10 10 10 10 10 10
0 1 2 2 2 2 1 0 0 1 1 2 2 2 1 1 1 2 1 1 1 1 1 0 1 2 1 2 3 3 1 1 2 1 0 1 2 3 2 0 0 0 1 2 2 2 1 2 2 2 4 7 9 9 9 9 8 8 8 9 9 9 10 9 9 9 9 9 9 9 9 9 9 9 9 10 10 10 10 10 10 10 10 10 10 10
0 1 2 1 1 2 1 1 1 1 2 2 2 2 1 1 1 1 1 1 1 1 1 1 2 2 2 3 3 3 2 1 1 1 1 1 2 3 2 0 0 0 1 2 2 2 1 1 2 2 5 8 9 10 9 8 7 7 7 8 9 9 9 9 9 8 8 8 8 8 8 8 8 8 9 9 9 9 10 10 10 10 10 10 11 11
1 0 1 1 2 2 2 2 1 2 2 3 3 2 2 2 2 1 1 1 1 1 2 2 3 3 2 3 4 4 3 2 2 2 2 0 2 3 2 0 0 0 1 2 2 2 1 1 2 3 5 8 10 9 8 7 6 6 7 8 8 8 8 8 8 8 8 8 8 8 8 8 8 8 8 8 8 9 9 9 9 9 10 10 10 11
2 2 2 2 2 2 2 2 2 2 2 2 2 2 2 3 3 3 2 2 2 1 1 2 2 2 3 3 4 3 3 2 3 3 2 1 2 2 2 0 0 1 2 2 2 1 1 2 2 2 3 7 8 8 7 5 5 5 6 7 7 8 8 8 8 8 8 8 8 9 9 9 9 9 9 9 9 9 9 9 9 9 9 9 9 9
2 2 2 2 2 2 2 2 2 2 2 2 1 1 1 1 2 1 1 1 1 1 1 1 2 2 2 2 2 2 2 0 2 3 2 1 1 2 2 1 0 1 2 3 2 1 1 2 2 2 2 5 6 6 5 4 4 5 6 7 7 8 8 8 8 8 9 9 9 9 10 10 10 10 10 10 10 9 9 9 9 9 9 9 9 9
2 2 2 2 2 2 2 2 2 2 2 2 2 1 1 1 1 1 2 1 1 1 1 1 1 2 2 2 2 2 2 1 1 2 3 1 1 2 2 1 0 1 2 2 2 1 1 2 3 2 2 3 4 4 4 4 5 6 7 7 8 8 8 9 9 9 9 9 10 10 10 10 11 11 11 11 11 10 10 10 10 10 10 9 9 9
2 2 2 1 1 1 0 1 1 1 2 2 2 2 2 1 1 2 1 1 1 1 1 1 1 2 2 2 2 2 2 1 0 2 3 2 1 1 2 1 1 0 1 2 2 2 3 3 3 2 2 2 2 3 3 4 5 6 8 8 8 9 9 9 9 9 9 10 10 10 10 11 11 11 12 12 12 11 11 11 11 11 10 10 8 7
2 2 2 2 2 2 3 3 3 4 4 4 5 4 2 1 1 1 2 2 1 0 0 0 1 1 1 2 2 2 2 1 1 1 3 2 1 1 2 1 0 0 1 2 2 3 3 3 3 2 2 2 1 2 3 4 6 7 8 9 9 9 9 9 9 9 9 9 10 10 10 11 11 12 12 12 12 12 12 12 12 11 10 8 6 4
1 2 3 3 4 4 4 4 4 5 6 6 6 6 3 2 2 3 3 2 1 0 1 1 1 1 1 2 2 2 2 2 1 1 3 2 1 1 2 1 1 1 1 2 2 2 2 2 2 1 1 1 1 1 2 4 5 6 7 8 9 9 9 9 9 9 9 9 10 10 10 11 11 12 12 12 12 12 12 13 12 11 8 6 4 3
2 2 3 4 4 4 4 3 4 5 6 7 7 6 3 2 3 3 3 2 2 1 1 2 1 1 1 1 2 2 2 3 2 0 3 2 1 1 1 1 1 1 1 2 2 2 2 2 2 2 1 1 1 2 2 3 3 3 4 5 6 7 8 8 9 9 9 10 10 10 11 11 11 11 12 12 12 12 12 13 11 9 5 3 3 2
2 2 2 2 2 2 2 2 2 3 5 5 5 4 2 1 2 3 3 3 2 2 2 2 2 1 1 0 0 1 2 3 3 1 3 2 1 1 0 0 1 1 1 2 1 1 2 3 3 2 2 2 2 2 2 2 2 2 2 2 3 4 6 7 8 8 9 10 10 11 11 11 11 11 11 11 11 12 12 12 11 8 4 2 2 2
1 1 1 1 1 1 1 1 1 2 2 2 2 2 1 1 2 2 2 3 3 3 2 2 2 2 1 2 2 2 2 3 3 1 3 2 1 1 1 1 0 1 0 2 2 1 1 2 2 2 2 2 2 2 3 3 2 2 2 2 2 3 4 5 6 7 7 9 10 11 11 11 11 11 11 11 11 11 12 12 11 8 4 3 2 3
1 1 1 1 1 1 1 1 1 1 1 1 1 1 1 1 2 2 2 3 3 3 3 2 2 2 2 2 2 2 2 3 2 1 3 2 1 0 0 1 0 1 1 1 1 2 2 2 2 2 2 2 2 2 3 3 3 3 2 1 1 2 3 3 4 4 5 6 7 8 10 10 11 11 11 11 10 11 11 11 11 9 6 3 3 3
1 2 2 2 2 2 1 1 1 1 1 1 2 2 2 2 2 2 2 2 3 3 3 3 3 2 2 2 2 2 3 3 2 1 3 3 1 0 0 0 0 0 0 0 0 0 1 1 2 2 2 2 2 2 2 3 3 3 1 1 1 2 2 2 2 2 3 3 4 4 6 7 8 9 10 10 10 10 10 10 10 10 9 6 4 3
1 2 2 2 2 2 2 2 2 2 1 2 2 2 2 2 2 2 2 2 2 3 3 4 4 4 3 2 2 2 3 3 2 2 3 2 2 1 0 0 1 1 1 0 0 1 1 2 2 2 3 3 2 2 2 2 2 2 1 1 1 1 2 2 2 2 3 3 3 3 3 4 5 6 7 8 8 9 10 10 10 10 10 9 7 5
1 2 2 2 2 2 2 2 2 2 2 2 2 2 2 2 2 2 2 2 2 3 3 3 3 4 4 4 3 3 3 3 1 2 3 2 2 1 1 1 1 1 1 0 0 1 1 2 2 3 3 3 3 2 2 2 2 2 2 2 2 2 3 3 2 2 2 2 3 3 3 3 3 4 5 7 8 9 10 10 10 10 11 11 10 8
1 1 2 2 2 2 2 2 2 2 2 2 1 1 1 1 1 1 1 2 2 2 3 3 3 3 4 4 4 4 4 3 1 0 2 2 2 2 1 1 1 1 1 1 1 1 1 2 3 3 3 3 3 2 3 2 2 2 3 2 3 3 4 4 3 3 2 3 3 3 3 3 3 3 4 7 8 8 9 10 10 10 11 11 11 11
1 2 2 2 2 2 2 2 2 2 2 1 1 1 1 1 1 1 1 1 2 2 2 2 2 3 4 4 4 3 3 3 2 1 1 2 2 2 1 1 1 1 1 1 1 1 2 2 3 3 3 3 3 3 3 3 3 3 3 3 3 3 4 4 3 3 2 3 4 4 4 4 3 3 3 4 4 3 4 5 6 8 9 9 10 11
1 2 2 2 2 2 2 2 2 2 2 1 1 1 1 1 1 1 1 1 2 2 3 3 3 3 4 4 4 5 4 4 3 3 2 2 2 2 2 2 2 1 1 1 1 1 2 3 3 3 3 3 3 3 3 2 3 3 3 4 3 3 3 3 2 2 2 3 3 4 4 4 3 3 3 2 2 2 2 2 3 4 5 4 5 8
2 2 2 2 2 2 2 2 2 2 1 1 1 0 0 1 1 1 1 1 1 2 2 3 3 3 3 4 4 5 5 4 4 4 2 2 2 2 3 3 3 2 2 2 2 2 3 3 4 4 4 3 3 4 3 3 3 3 4 4 3 3 2 2 2 3 3 3 3 3 3 3 3 3 3 3 2 2 2 2 3 3 3 2 2 3
2 2 2 2 2 2 2 2 2 1 1 0 1 1 1 1 1 1 1 2 2 2 2 1 1 2 2 3 3 4 5 5 5 5 4 4 4 4 4 3 3 2 2 2 2 3 3 4 4 4 4 4 4 5 5 4 5 6 6 5 4 4 4 4 4 3 3 3 3 3 3 4 4 4 3 3 3 3 3 3 3 3 3 2 2 2
3 3 2 2 2 2 1 1 0 0 1 1 1 0 1 1 1 1 1 1 1 1 1 0 1 1 2 3 3 3 3 4 5 5 5 5 5 5 5 4 3 3 2 3 3 3 4 4 4 4 4 4 4 4 4 4 5 5 5 4 5 5 5 5 3 2 2 2 3 3 3 3 3 3 3 3 3 3 4 3 4 4 4 3 3 3
3 2 2 2 2 1 1 1 1 1 1 1 0 1 2 2 1 1 1 1 1 1 1 0 0 0 1 2 3 3 3 3 4 5 6 5 6 6 5 5 4 3 3 3 3 3 4 5 5 4 3 3 4 4 5 5 5 4 5 5 5 4 3 3 2 1 1 2 2 3 3 3 3 3 3 3 3 3 3 4 5 6 5 4 3 4
3 2 2 2 1 0 1 1 1 0 0 1 2 2 2 2 2 2 2 1 1 1 1 0 0 0 2 3 3 3 3 3 4 4 5 6 6 6 5 5 5 4 4 3 3 3 3 4 4 4 3 3 4 4 5 5 5 4 4 4 4 4 4 3 3 3 3 3 3 3 3 3 3 3 3 3 3 2 2 3 3 4 4 4 4 4
2 2 1 1 0 0 0 1 1 1 1 2 2 2 2 2 2 2 2 2 1 1 1 0 0 1 2 3 3 3 3 3 3 3 4 5 7 7 6 5 5 4 4 4 4 4 3 4 4 3 3 3 4 5 5 6 6 5 5 5 5 5 5 4 4 4 4 4 4 4 3 3 2 2 2 3 3 3 3 3 3 4 4 4 4 4
2 2 2 1 1 1 2 2 2 2 2 2 2 2 2 2 2 2 2 2 2 1 1 1 1 1 3 3 3 3 2 2 2 2 2 3 4 5 6 5 5 5 5 5 5 5 5 4 4 3 3 4 5 5 6 6 6 6 5 5 5 4 5 5 4 4 4 4 4 4 3 2 1 2 2 3 3 4 3 3 4 4 4 4 4 4
3 3 2 2 2 2 2 2 2 2 2 2 2 2 2 2 1 1 1 2 2 2 1 1 2 2 3 3 3 3 3 3 3 3 2 2 2 3 4 4 5 6 5 5 6 6 6 6 5 4 4 5 5 6 6 6 5 5 5 4 4 4 4 4 4 4 4 4 3 3 2 1 1 2 3 3 4 4 4 4 4 4 4 4 4 4
4 4 3 3 2 2 2 2 2 2 2 2 2 2 2 2 2 2 1 2 2 2 2 2 2 3 4 4 4 4 4 4 3 3 3 2 2 2 3 3 4 5 6 6 6 7 7 7 7 6 6 6 6 6 6 6 5 5 4 4 4 4 5 5 4 4 4 3 3 3 2 1 2 3 4 4 4 4 4 4 4 4 4 4 4 4
4 4 4 3 3 2 2 2 2 2 2 2 2 2 2 2 3 3 2 2 2 2 2 3 3 4 4 4 4 4 4 4 4 3 3 3 2 2 2 2 3 3 4 5 5 6 6 7 8 8 8 7 7 7 7 7 6 5 4 4 4 4 5 5 5 4 3 4 4 3 3 3 3 3 4 4 5 6 6 5 5 4 4 4 4 5
4 4 4 3 3 3 3 3 2 2 2 2 2 2 2 2 1 1 1 1 2 2 3 3 4 4 4 4 4 4 4 4 3 3 3 3 2 2 2 2 2 2 2 3 3 3 3 4 6 8 10 10 10 9 8 7 6 5 4 4 4 4 5 5 5 4 4 4 4 4 4 4 4 3 3 4 5 7 7 6 5 5 4 4 4 5
4 3 3 3 3 3 3 3 3 3 3 3 2 2 2 1 1 1 1 1 1 2 3 3 4 4 5 5 4 4 4 4 4 4 3 3 2 2 2 2 2 2 2 2 2 2 2 3 3 5 7 11 13 12 9 7 6 5 5 4 4 4 4 4 5 4 5 5 4 4 4 4 4 3 3 3 5 6 7 6 6 5 4 3 4 4
Wind_Direction
105 98 52 41 62 82 81 70 63 56 49 76 94 110 160 189 195 198 205 209 207 204 202 203 196 164 105 80 74 71 69 69 70 71 71 72 74 75 75 70 65 58 51 46 42 38 38 42 44 45 43 36 30 24 17 15 14 12 10 5 1 357 354 351 349 347 345 343 340 338 336 335 334 334 331 327 319 313 311 308 309 312 316 318 318 317
111 102 71 49 60 78 88 73 65 55 36 29 22 10 343 306 259 220 208 211 210 207 200 194 182 165 143 105 82 73 71 70 71 73 74 74 75 74 73 70 63 57 55 54 56 56 57 58 57 54 51 43 36 32 27 23 20 16 12 7 3 1 358 357 356 354 353 350 347 345 342 340 337 333 328 322 314 308 303 297 296 298 299 301 303 304
111 98 96 78 77 82 85 68 61 54 47 26 5 342 330 325 325 325 336 326 301 270 228 186 165 152 138 115 90 73 70 67 67 68 69 71 73 73 73 71 65 59 56 60 65 69 75 75 72 68 61 52 40 37 31 25 20 15 12 8 3 1 358 358 356 355 354 351 349 347 345 341 337 334 330 326 322 319 314 308 302 296 286 283 282 283
100 103 120 121 112 101 88 67 50 37 49 290 265 267 273 290 310 328 340 336 330 324 325 342 107 123 122 111 94 80 72 68 65 64 63 64 65 66 67 67 64 57 53 55 63 70 78 83 83 82 69 46 36 30 24 18 15 11 7 4 360 356 355 353 351 349 348 346 344 342 340 337 335 332 330 329 328 325 324 319 315 309 299 288 280 277
81 101 125 125 120 112 103 95 92 254 235 225 226 226 222 212 215 257 298 309 313 313 314 327 26 105 117 115 110 98 87 78 72 67 62 60 59 57 57 59 61 60 58 61 64 68 71 73 70 60 38 23 18 14 11 9 6 2 359 356 352 349 347 344 342 340 338 337 335 334 332 331 329 328 328 327 326 324 323 320 318 315 310 302 295 289
78 104 117 114 114 117 119 143 206 240 249 245 240 229 213 197 193 199 230 249 262 272 280 287 289 122 126 133 136 133 120 104 92 83 74 68 62 56 53 55 57 58 58 59 59 59 53 49 38 24 10 4 360 357 355 355 352 350 349 346 342 339 336 333 331 330 328 327 326 325 324 323 322 322 322 322 321 320 318 316 315 314 311 308 304 301
88 91 91 101 117 127 138 180 212 231 241 271 281 284 269 213 197 198 210 214 223 239 261 277 298 84 118 136 143 145 141 130 120 113 103 92 78 66 57 53 51 50 49 47 43 38 27 18 6 353 346 342 339 337 337 337 338 337 336 333 331 328 326 324 322 321 320 319 318 317 316 316 315 315 315 315 315 315 314 313 312 310 308 306 305 304
100 54 45 118 140 147 161 194 212 208 180 196 338 343 339 329 302 263 247 240 234 231 281 328 354 14 42 94 120 125 124 113 104 99 100 87 72 62 54 47 40 34 28 20 10 358 345 336 327 321 319 318 318 319 320 323 325 326 325 324 322 320 318 317 315 314 312 311 310 310 309 308 308 308 308 308 309 309 309 309 308 307 305 304 302 302
116 115 340 181 152 147 163 225 238 227 174 147 132 91 349 336 332 335 343 342 342 356 49 31 18 8 357 6 31 54 60 79 85 93 100 73 59 54 50 31 16 357 338 328 319 313 307 305 303 302 301 303 305 308 312 315 317 318 318 317 316 315 314 312 311 309 307 306 304 303 302 302 301 301 301 301 302 303 303 304 303 302 301 300 299 298
114 132 188 240 180 151 147 216 250 252 184 143 140 139 129 73 19 6 4 347 339 342 23 54 46 16 348 351 5 25 35 34 42 73 114 124 124 118 90 14 325 307 297 299 298 297 296 295 295 294 296 299 302 305 310 313 314 316 316 315 315 314 313 311 309 308 306 304 302 300 298 298 297 296 296 295 295 296 296 296 296 295 295 294 294 293
130 152 164 217 243 180 155 201 230 245 56 61 49 40 58 79 76 59 25 344 332 334 353 23 62 78 7 348 356 10 24 13 4 360 19 94 173 180 207 235 260 276 286 296 300 301 301 300 299 299 301 304 306 310 313 315 318 318 318 318 317 316 314 312 310 308 305 303 301 299 297 296 295 294 293 292 291 290 290 290 289 289 289 288 287 287
172 172 166 173 187 248 273 269 294 360 40 46 37 23 6 10 70 98 93 330 316 322 333 332 333 79 136 56 10 9 20 13 357 346 345 338 319 296 275 279 288 295 305 319 323 320 316 316 316 315 316 317 317 318 319 322 323 324 324 322 321 318 316 313 310 308 305 303 300 299 297 295 293 292 291 289 288 287 286 285 285 284 283 282 281 280
175 154 128 119 124 145 242 348 10 22 37 51 57 47 340 316 360 99 111 188 248 265 290 325 328 327 344 53 56 40 28 10 352 344 348 342 339 343 3 349 336 332 339 348 344 336 330 332 332 332 332 330 328 326 325 328 329 327 326 324 321 319 316 313 311 308 306 304 302 299 296 294 291 289 288 287 286 284 283 282 281 281 280 279 277 276
22 43 53 50 43 46 85 71 63 54 50 78 120 164 216 263 12 54 54 354 306 290 352 3 344 334 343 4 27 52 60 30 8 357 353 336 327 331 23 3 336 326 16 16 351 334 334 346 348 343 340 339 335 332 334 334 329 325 322 320 318 316 313 312 311 309 308 307 305 302 298 295 291 289 287 286 285 283 282 281 280 279 278 277 275 274
59 60 56 31 351 313 92 96 95 101 132 168 180 180 181 17 33 44 46 360 333 332 12 10 357 344 347 338 343 16 66 56 36 12 353 327 314 311 34 3 336 327 19 29 341 318 327 348 350 340 337 333 325 320 322 325 320 315 315 313 312 311 310 309 309 308 308 307 306 303 300 298 295 292 290 288 286 284 283 281 281 279 278 277 275 274
106 94 95 137 255 250 205 129 126 137 180 198 159 89 64 40 38 44 56 5 346 355 22 17 2 346 335 324 327 352 60 64 55 29 354 320 308 306 20 12 339 325 345 352 313 303 318 331 332 321 313 310 309 308 307 309 310 309 309 308 308 307 306 306 305 305 304 304 303 302 301 299 297 295 292 290 288 287 286 284 283 282 282 280 278 276
97 99 119 149 231 252 243 141 138 147 165 133 77 86 100 114 114 103 95 64 27 28 37 48 29 345 324 319 320 328 43 74 71 47 360 311 298 296 339 15 307 295 303 300 284 281 299 308 306 299 292 299 303 305 305 305 305 305 305 306 305 305 304 303 302 301 299 299 298 298 298 297 295 293 291 289 289 288 287 286 285 285 284 284 283 281
109 127 132 151 214 233 228 139 115 106 84 54 41 38 59 102 122 119 117 108 96 82 73 89 113 172 283 297 296 295 347 95 89 65 360 300 290 290 317 45 150 255 282 285 279 275 276 275 273 281 291 300 302 303 303 303 303 304 304 305 305 305 303 302 300 298 296 295 294 294 293 292 291 289 287 286 285 285 284 283 282 282 282 282 282 282
190 177 151 172 199 222 235 91 84 74 65 62 56 39 20 9 23 50 69 95 118 130 135 135 164 203 219 250 262 267 253 107 98 81 360 293 287 291 317 22 30 324 287 277 271 268 268 268 276 286 296 301 302 302 301 301 302 304 306 307 307 306 304 302 299 297 295 292 291 289 288 286 285 284 283 281 281 280 279 278 278 277 277 277 278 279
214 212 184 171 158 111 38 37 67 94 114 120 102 82 49 19 22 30 31 39 66 108 126 135 184 228 233 251 264 273 300 80 77 66 319 282 283 288 306 360 360 306 295 277 266 260 260 267 281 292 298 300 301 301 300 300 302 305 308 309 309 307 305 302 299 297 294 291 290 287 285 283 281 280 278 277 275 274 273 273 273 273 273 273 273 275
289 266 233 173 132 105 82 87 117 127 132 110 92 77 66 43 29 24 16 25 27 31 48 56 241 243 244 268 276 280 280 58 58 39 312 296 290 288 291 295 112 280 288 277 270 262 259 266 271 281 291 298 299 298 298 299 302 305 308 309 309 308 306 303 300 298 296 294 293 291 287 285 282 278 275 274 272 270 270 270 269 269 269 269 270 270
65 279 265 191 119 112 119 140 140 130 117 100 94 90 89 77 55 22 353 21 25 15 345 260 248 246 253 270 276 274 255 160 136 136 101 316 295 287 281 269 111 119 271 271 271 270 267 265 266 277 290 297 298 297 297 297 300 303 306 307 307 306 305 302 301 300 301 301 300 299 298 295 291 286 283 279 276 274 273 271 270 269 267 267 266 266
82 27 342 50 80 94 105 114 117 108 100 104 117 135 150 146 153 169 196 180 193 219 236 244 252 260 266 271 273 270 256 203 162 136 116 227 274 276 278 317 54 350 268 265 271 280 292 277 271 277 288 295 296 295 295 295 297 300 302 304 304 304 303 301 300 301 303 304 304 304 304 302 299 296 293 290 286 283 280 277 274 272 270 268 267 266
70 64 53 60 70 83 95 99 96 90 89 102 121 145 159 162 168 175 181 183 194 214 238 270 290 297 289 277 273 271 263 189 142 128 123 188 247 261 275 317 360 299 271 264 264 275 297 288 278 276 282 291 292 291 291 290 290 294 298 300 301 301 301 299 300 301 302 302 301 301 300 300 298 297 295 293 291 288 286 282 280 277 276 274 274 274
77 78 73 70 74 81 92 99 103 106 106 109 118 133 154 170 173 172 149 169 230 259 283 322 320 308 294 287 285 289 296 358 119 124 128 174 247 266 275 269 228 257 268 271 274 287 310 293 284 280 281 286 287 286 282 278 281 287 292 296 297 298 298 297 298 299 299 298 298 297 296 295 293 292 291 289 287 286 285 283 282 281 280 280 281 281
73 78 78 74 73 76 83 97 112 128 140 142 146 148 147 108 55 33 23 358 327 308 313 329 314 297 293 306 305 304 308 330 100 126 134 145 239 280 283 271 212 232 270 282 293 305 308 291 286 283 283 282 281 278 271 271 279 287 291 294 295 295 294 294 294 295 295 295 295 294 294 292 291 289 287 285 284 282 281 280 279 279 279 280 281 282
29 25 32 40 39 22 305 269 252 238 226 210 203 192 165 104 60 24 348 315 302 314 354 342 314 303 308 312 300 291 294 299 231 144 133 125 136 276 279 272 252 248 280 291 292 291 288 284 281 277 276 277 282 284 280 286 292 295 297 297 296 295 294 294 293 293 294 294 294 293 293 291 290 288 286 284 282 280 278 277 276 276 276 276 278 280
345 329 320 305 287 276 269 268 269 269 267 261 255 247 218 143 130 226 246 238 230 92 41 274 276 284 293 285 280 280 285 273 233 176 129 115 129 249 265 271 285 359 312 303 297 291 287 281 277 274 274 278 290 302 305 305 304 304 304 303 301 300 300 299 299 298 297 296 295 294 293 292 290 288 287 284 282 279 277 275 274 274 273 273 273 277
280 279 277 271 267 264 262 265 267 266 267 266 265 263 251 184 173 195 216 200 174 147 261 249 244 244 255 271 285 293 293 278 250 172 116 106 133 249 263 294 351 23 17 336 325 317 309 295 290 290 290 298 316 323 317 313 310 308 307 307 306 306 305 305 304 304 302 301 299 297 295 293 291 289 287 285 282 280 277 275 274 273 272 270 269 269
287 276 270 265 261 257 251 248 250 255 259 262 265 267 262 188 171 180 191 171 162 183 232 242 238 236 243 305 321 317 299 285 274 206 108 105 139 261 278 328 347 12 50 24 3 340 321 309 305 306 309 330 338 332 314 312 309 306 305 306 306 305 304 305 306 306 306 305 303 301 298 295 292 290 287 285 282 280 278 276 275 274 271 270 268 264
300 288 281 276 271 264 246 226 231 242 253 260 267 272 271 184 168 171 171 164 169 184 208 221 223 215 190 128 325 297 285 281 276 257 108 113 169 239 229 336 324 321 89 88 65 349 312 306 304 309 330 346 341 325 311 306 302 299 298 302 302 299 298 302 305 308 308 307 306 304 302 299 296 293 290 287 284 281 279 277 276 274 273 268 264 263
284 284 280 285 289 291 261 229 224 235 247 258 267 270 252 201 180 174 171 171 173 180 192 204 211 209 190 182 195 222 251 269 266 240 113 118 159 221 162 136 285 296 106 121 128 150 256 285 296 310 335 341 330 317 309 306 303 299 298 299 293 291 294 302 306 308 307 306 305 305 304 302 300 298 294 291 287 283 280 278 276 274 270 263 257 258
287 296 297 302 308 308 292 259 239 232 235 235 239 241 239 223 203 189 179 175 173 174 180 192 203 212 214 211 217 227 246 263 264 222 112 114 124 208 145 115 111 301 326 108 138 161 193 237 272 298 319 319 313 307 304 303 299 296 295 294 285 285 293 304 308 305 299 300 301 302 303 303 302 300 298 294 291 287 283 280 277 273 268 260 251 252
303 308 310 313 315 312 303 294 271 247 236 229 224 223 218 218 211 201 190 180 175 174 175 182 191 201 216 228 240 249 261 268 287 14 87 100 111 131 106 112 133 213 360 353 335 238 227 244 271 296 307 303 296 289 288 289 292 293 294 284 274 280 291 304 304 297 290 292 294 296 298 299 299 298 297 296 293 290 286 282 278 274 270 263 253 245
318 309 306 306 305 301 297 292 283 266 249 239 229 221 212 206 204 202 197 193 186 182 180 182 185 189 195 208 227 246 258 262 306 23 66 86 101 110 81 180 171 153 108 280 296 298 291 278 284 294 302 304 298 287 276 276 284 293 303 299 288 285 285 289 289 289 288 291 289 287 286 288 289 290 291 291 291 290 288 285 281 277 274 269 263 254
320 306 294 287 283 280 277 274 268 261 253 247 238 225 209 202 199 198 199 198 198 198 197 194 192 190 190 194 206 224 242 249 283 31 62 87 101 107 99 226 195 153 129 180 240 261 277 284 288 293 298 298 297 293 287 287 299 315 320 317 311 301 291 283 279 278 284 287 285 281 278 277 275 275 277 284 287 289 290 289 286 283 279 274 270 264
303 288 279 271 263 259 259 257 250 243 240 246 246 238 216 204 203 205 207 203 202 205 208 210 210 208 206 202 205 215 232 244 257 16 76 105 115 120 147 224 208 160 141 180 232 262 279 288 292 293 291 286 285 289 296 308 320 325 318 312 306 300 293 287 282 276 276 277 276 275 272 271 271 271 273 282 287 290 292 291 289 286 283 280 276 272
279 272 268 261 252 246 243 242 237 230 224 226 228 226 213 202 205 213 220 209 203 202 206 212 220 229 235 235 232 229 237 251 259 257 154 136 135 140 172 224 236 209 171 187 211 249 278 285 289 290 286 280 279 285 296 307 313 310 302 296 291 287 284 284 283 281 277 277 277 277 277 275 275 276 280 284 290 295 294 291 287 285 284 282 280 277
255 255 257 252 243 233 225 226 225 221 211 209 209 205 193 189 209 232 239 222 213 208 207 210 216 225 236 244 249 251 253 256 256 250 225 189 177 182 202 228 240 239 214 201 212 235 258 266 272 276 282 286 287 290 294 296 296 297 299 299 294 285 277 281 285 286 282 281 284 286 286 284 282 280 279 280 279 276 273 273 270 269 272 278 281 280
240 243 247 245 238 225 214 217 218 215 201 198 190 148 58 11 334 307 291 273 254 238 224 218 221 227 234 240 246 250 252 251 247 240 228 212 204 205 212 224 233 240 238 236 240 245 251 257 262 266 270 279 286 291 292 288 288 294 302 305 303 298 292 289 287 281 277 275 277 279 280 279 276 273 270 266 257 248 242 243 247 247 242 235 252 273
231 238 244 246 242 232 221 215 210 199 163 109 54 31 14 352 326 313 306 306 295 283 270 261 264 272 276 267 259 252 246 244 239 233 224 216 212 210 211 216 223 230 238 249 252 251 250 254 258 261 264 271 278 283 284 284 289 294 298 296 293 291 291 287 281 275 273 272 270 269 271 275 276 273 266 261 252 242 235 232 236 241 241 216 207 209
234 237 238 242 244 246 245 243 248 68 68 64 53 359 250 230 233 250 272 291 293 290 287 292 316 315 311 302 292 277 259 247 238 231 224 214 208 204 205 209 214 220 229 244 251 253 251 251 253 256 259 265 273 277 278 280 283 286 286 285 290 294 295 288 280 267 263 273 276 276 275 277 275 271 266 264 259 252 244 237 238 242 245 229 213 207
233 234 233 232 232 237 254 354 15 20 29 16 290 247 229 212 203 201 211 228 248 260 267 224 157 268 298 296 296 294 285 266 247 235 224 211 201 197 199 201 202 203 206 228 243 250 251 250 251 252 253 258 265 271 277 279 279 276 273 276 285 294 300 292 288 282 271 274 276 276 276 272 269 267 266 264 262 260 257 254 253 253 252 242 230 223
228 232 233 233 233 240 29 9 343 307 276 256 253 249 241 225 217 212 211 213 223 233 245 238 241 276 279 278 280 282 281 274 261 246 227 209 199 193 192 194 193 192 190 209 230 245 252 252 251 250 250 253 259 265 270 274 276 274 269 267 265 264 264 273 283 292 291 283 277 271 265 264 266 268 273 270 266 263 262 259 260 261 261 253 244 239
221 232 240 241 248 300 302 263 252 242 236 238 242 246 248 236 226 216 206 204 207 213 213 206 269 284 276 273 273 273 273 275 269 258 242 216 202 193 186 187 188 191 194 206 219 233 244 251 254 255 253 253 256 259 264 269 273 274 271 267 261 257 255 263 272 280 282 281 277 271 261 260 268 279 284 279 273 266 261 260 263 265 266 261 254 250
220 229 235 230 224 224 233 235 234 236 241 244 246 247 247 236 224 211 201 191 190 195 201 186 211 252 265 270 273 276 277 282 282 277 265 228 204 192 186 188 191 197 205 213 220 226 233 241 248 255 258 258 258 257 257 262 266 270 271 269 267 266 267 268 268 267 268 271 272 270 263 261 270 279 279 278 274 269 262 257 256 257 261 260 258 255
218 219 221 217 217 220 228 228 228 232 240 245 247 248 246 236 223 211 201 183 180 184 198 204 226 243 257 264 268 271 274 278 282 284 280 254 217 196 190 193 197 202 208 214 220 225 230 233 236 241 249 256 260 260 257 256 258 261 266 268 270 270 271 269 266 262 259 261 263 264 265 287 288 281 279 281 281 279 272 263 257 253 253 256 257 258
215 215 214 210 211 216 225 223 220 221 231 240 247 252 250 239 228 220 213 189 183 192 210 223 236 245 253 256 258 259 263 267 269 271 276 271 248 214 195 196 202 208 214 218 223 227 230 231 230 230 234 244 254 261 263 258 255 254 257 261 264 266 268 268 266 262 258 257 254 250 238 250 265 273 282 286 287 284 280 272 264 256 251 251 253 256
210 208 206 203 205 210 219 217 215 216 225 235 247 260 264 258 247 238 223 203 198 204 217 230 240 248 254 256 255 254 256 259 260 260 260 263 262 251 224 207 205 210 218 223 227 231 236 235 232 229 228 234 244 255 262 261 258 253 253 254 256 259 264 266 265 263 258 256 250 242 232 234 242 252 269 281 285 285 284 280 271 260 249 244 245 248
208 203 200 198 202 209 215 214 215 218 225 231 239 252 268 276 271 251 226 214 216 221 225 231 239 247 254 256 255 253 252 255 256 254 251 250 249 250 254 237 226 223 228 233 237 240 247 247 241 235 230 230 233 241 253 257 258 257 253 251 250 251 257 263 264 261 257 255 251 247 242 243 243 246 255 270 278 282 284 282 277 269 255 244 241 243
210 205 199 198 203 209 212 211 212 216 221 224 229 236 247 265 276 277 270 245 240 238 235 233 236 242 249 254 254 252 248 251 253 253 250 245 241 238 241 240 238 237 242 249 252 254 258 265 264 254 241 231 226 226 236 244 250 255 256 251 246 243 247 255 258 257 255 254 252 248 244 245 247 249 251 262 273 279 282 282 280 275 264 251 245 245